FW1633 Beechhurst NY US current weather conditions

sailwx.info

Wind from 041 at 4 knots gusting 5

Air temperature 21.7° C
Dewpoint 20.7° C

Last reported at 2020-Aug-08 11:07 UTC.
Time now 2020-Aug-08 12:00 UTC

Location: N 40°48' W 073°48'.
View on Google Maps.

See reports from other nearby stations

  
Tides and Currents Weather Stations Pressure Air Temp Water Temp Dewpoint Dewpoint Depression Visibility Wind Speed Wind Dir Waves Ship Positions
date/time (UTC)wind fromknots sea level pressurealtimeterstation pressurevisibilityair tempwater tempwave heightnotes
2020-Aug-08 11:07 041 4 gusting 5 21.7
2020-Aug-08 11:02 053 3 gusting 6 21.7
2020-Aug-08 10:57 046 3 gusting 6 21.7
2020-Aug-08 10:52 062 4 gusting 5 21.7
2020-Aug-08 10:47 074 2 gusting 5 21.7
2020-Aug-08 10:42 039 3 gusting 4 21.7
2020-Aug-08 10:37 047 2 gusting 4 21.7
2020-Aug-08 10:32 046 3 gusting 4 21.7
2020-Aug-08 10:27 056 3 gusting 4 21.7
2020-Aug-08 10:22 046 2 gusting 3 21.7
2020-Aug-08 10:15 049 1 gusting 3 21.1
2020-Aug-08 10:12 040 0 gusting 2 21.7
2020-Aug-08 10:07 051 21.7
2020-Aug-08 10:02 051 21.7
2020-Aug-08 09:57 050 21.7
2020-Aug-08 09:52 042 2 gusting 3 21.7
2020-Aug-08 09:47 041 2 gusting 3 21.7
2020-Aug-08 09:42 053 1 gusting 3 21.7
2020-Aug-08 09:37 058 2 gusting 3 21.7
2020-Aug-08 09:32 042 21.7
2020-Aug-08 09:27 095 21.7
2020-Aug-08 09:22 129 21.7
2020-Aug-08 09:17 197 21.7
2020-Aug-08 09:15 192 21.1
2020-Aug-08 09:07 065 21.7
2020-Aug-08 09:02 049 21.7
2020-Aug-08 08:57 063 1 gusting 4 21.7
2020-Aug-08 08:52 053 3 gusting 4 21.7
2020-Aug-08 08:47 059 3 gusting 4 21.1
2020-Aug-08 08:42 066 0 gusting 3 21.7
2020-Aug-08 08:37 103 21.7
2020-Aug-08 08:32 064 2 gusting 4 21.7
2020-Aug-08 08:30 063 1 gusting 4 21.1
2020-Aug-08 08:22 068 21.7
2020-Aug-08 08:17 118 1 gusting 5 21.7
2020-Aug-08 08:12 060 1 gusting 3 21.7
2020-Aug-08 08:07 042 2 gusting 5 21.7
2020-Aug-08 08:02 048 1 gusting 5 21.7
2020-Aug-08 07:57 066 2 gusting 6 21.7
2020-Aug-08 07:52 047 3 gusting 6 21.7
2020-Aug-08 07:47 036 5 gusting 6 21.7
2020-Aug-08 07:45 041 4 gusting 6 21.7
2020-Aug-08 07:37 037 5 gusting 9 21.7
2020-Aug-08 07:32 056 4 gusting 6 21.7
2020-Aug-08 07:27 034 3 gusting 5 21.7
2020-Aug-08 07:22 056 3 gusting 5 21.7
2020-Aug-08 07:17 048 3 gusting 6 21.7
2020-Aug-08 07:12 048 3 gusting 6 21.7
2020-Aug-08 07:07 043 4 gusting 6 21.7
2020-Aug-08 07:02 050 3 gusting 6 21.7
2020-Aug-08 06:57 048 3 gusting 6 21.7
2020-Aug-08 06:52 053 4 gusting 6 21.7
2020-Aug-08 06:47 037 4 gusting 6 21.7
2020-Aug-08 06:45 037 4 gusting 6 21.7
2020-Aug-08 06:37 038 5 gusting 8 21.7
2020-Aug-08 06:32 052 7 gusting 8 21.7
2020-Aug-08 06:27 035 6 gusting 8 22.2
2020-Aug-08 06:22 047 5 gusting 6 22.2
2020-Aug-08 06:17 027 2 gusting 4 22.2
2020-Aug-08 06:12 031 22.2
2020-Aug-08 06:07 006 22.2
2020-Aug-08 06:02 316 22.2
2020-Aug-08 05:57 342 22.2
2020-Aug-08 05:52 340 22.2
2020-Aug-08 05:47 020 22.2
2020-Aug-08 05:42 339 22.2
2020-Aug-08 05:37 321 22.2
2020-Aug-08 05:32 331 22.2
2020-Aug-08 05:27 340 22.2
2020-Aug-08 05:22 339 0 gusting 1 22.2
2020-Aug-08 05:17 324 22.2
2020-Aug-08 05:12 040 22.2
2020-Aug-08 05:07 040 22.2
2020-Aug-08 05:02 179 22.2
2020-Aug-08 04:57 179 22.2
2020-Aug-08 04:52 179 21.7
2020-Aug-08 04:47 179 21.7
2020-Aug-08 04:42 179 21.7
2020-Aug-08 04:37 179 21.7
2020-Aug-08 04:32 179 22.2
2020-Aug-08 04:30 179 21.7
2020-Aug-08 04:22 150 22.2
2020-Aug-08 04:17 049 21.7
2020-Aug-08 04:12 049 0 gusting 3 22.2
2020-Aug-08 04:07 053 2 gusting 4 22.2
2020-Aug-08 04:02 068 3 gusting 4 22.2
2020-Aug-08 03:57 014 1 gusting 3 22.2
2020-Aug-08 03:52 046 1 gusting 4 22.2
2020-Aug-08 03:47 047 2 gusting 4 22.2
2020-Aug-08 03:42 049 0 gusting 2 22.2
2020-Aug-08 03:37 066 22.2
2020-Aug-08 03:32 076 1 gusting 3 22.2
2020-Aug-08 03:27 081 2 gusting 5 22.2
2020-Aug-08 03:22 060 1 gusting 5 22.2
2020-Aug-08 03:17 110 0 gusting 6 22.2
2020-Aug-08 03:15 078 0 gusting 6 22.2
2020-Aug-08 03:07 062 4 gusting 7 22.2
2020-Aug-08 03:02 037 5 gusting 8 22.2
2020-Aug-08 02:57 060 5 gusting 10 22.2
2020-Aug-08 02:52 045 6 gusting 10 22.2
2020-Aug-08 02:47 041 4 gusting 11 22.2
2020-Aug-08 02:42 031 8 gusting 11 22.2
2020-Aug-08 02:37 066 6 gusting 13 22.2
2020-Aug-08 02:32 041 9 gusting 13 22.2
2020-Aug-08 02:27 065 9 gusting 13 22.2
2020-Aug-08 02:22 057 9 gusting 12 22.2
2020-Aug-08 02:17 049 9 gusting 13 22.2
2020-Aug-08 02:12 051 9 gusting 13 22.2
2020-Aug-08 02:07 037 10 gusting 11 22.2
2020-Aug-08 02:02 028 9 gusting 11 22.2
2020-Aug-08 01:57 037 6 gusting 7 22.2
2020-Aug-08 01:52 041 0 gusting 2 22.2
2020-Aug-08 01:47 110 0 gusting 1 22.8
2020-Aug-08 01:42 327 22.2
2020-Aug-08 01:37 316 0 gusting 5 22.2
2020-Aug-08 01:32 332 1 gusting 5 22.2
2020-Aug-08 01:27 316 0 gusting 5 22.8
2020-Aug-08 01:22 311 1 gusting 7 22.8
2020-Aug-08 01:17 313 2 gusting 5 22.2
2020-Aug-08 01:15 328 1 gusting 5 22.2
2020-Aug-08 01:07 281 22.8
2020-Aug-08 01:02 193 0 gusting 7 22.8
2020-Aug-08 00:57 143 5 gusting 6 22.8
2020-Aug-08 00:52 136 3 gusting 5 22.8
2020-Aug-08 00:47 146 1 gusting 2 22.8
2020-Aug-08 00:42 172 22.8
2020-Aug-08 00:37 215 22.8
2020-Aug-08 00:32 215 22.8
2020-Aug-08 00:27 210 23.3
2020-Aug-08 00:22 139 23.3
2020-Aug-08 00:17 124 23.3
2020-Aug-08 00:12 125 23.3
2020-Aug-08 00:07 153 23.3
2020-Aug-08 00:02 157 23.9
2020-Aug-07 23:57 147 23.9
2020-Aug-07 23:52 105 23.9
2020-Aug-07 23:47 098 23.9
2020-Aug-07 23:42 061 23.9
2020-Aug-07 23:37 174 23.9
2020-Aug-07 23:32 143 23.9
2020-Aug-07 23:27 137 23.9
2020-Aug-07 23:22 065 23.9
2020-Aug-07 23:17 087 0 gusting 3 23.9
2020-Aug-07 23:12 037 1 gusting 4 23.9
2020-Aug-07 23:07 086 1 gusting 4 23.9
2020-Aug-07 23:02 065 1 gusting 5 23.9
2020-Aug-07 22:57 062 3 gusting 5 23.9
2020-Aug-07 22:52 056 4 gusting 7 23.3
2020-Aug-07 22:47 048 6 gusting 9 23.3
2020-Aug-07 22:45 058 3 gusting 11 23.3
2020-Aug-07 22:37 063 7 gusting 11 23.3
2020-Aug-07 22:32 064 7 gusting 11 23.3
2020-Aug-07 22:27 036 7 gusting 12 23.3
2020-Aug-07 22:22 056 8 gusting 12 23.3
2020-Aug-07 22:17 075 8 gusting 11 23.3
2020-Aug-07 22:12 056 8 gusting 12 23.9
2020-Aug-07 22:07 060 9 gusting 12 23.9
2020-Aug-07 22:02 042 8 gusting 12 23.9
2020-Aug-07 21:57 044 9 gusting 11 23.9
2020-Aug-07 21:52 052 8 gusting 11 23.9
2020-Aug-07 21:47 037 8 gusting 11 23.9
2020-Aug-07 21:42 041 10 gusting 11 23.9
2020-Aug-07 21:37 049 9 gusting 11 23.9
2020-Aug-07 21:32 039 9 gusting 11 23.9
2020-Aug-07 21:27 035 7 gusting 12 23.9
2020-Aug-07 21:22 039 8 gusting 12 23.9
2020-Aug-07 21:17 041 10 gusting 12 23.9
2020-Aug-07 21:12 036 9 gusting 11 24.4
2020-Aug-07 21:07 049 9 gusting 11 24.4
2020-Aug-07 21:02 085 9 gusting 12 23.9
2020-Aug-07 20:57 047 10 gusting 12 23.9
2020-Aug-07 20:52 040 8 gusting 13 23.9
2020-Aug-07 20:47 067 9 gusting 13 23.9
2020-Aug-07 20:42 035 9 gusting 13 23.3
2020-Aug-07 20:37 048 10 gusting 14 23.3
2020-Aug-07 20:32 037 12 gusting 15 23.3
2020-Aug-07 20:27 040 13 gusting 15 23.3
2020-Aug-07 20:22 045 12 gusting 16 23.3
2020-Aug-07 20:17 051 12 gusting 16 23.3
2020-Aug-07 20:12 043 13 gusting 16 23.3
2020-Aug-07 20:07 060 13 gusting 16 23.3
2020-Aug-07 20:02 045 13 gusting 16 23.3
2020-Aug-07 19:57 035 12 gusting 17 23.3
2020-Aug-07 19:52 037 13 gusting 16 23.3
2020-Aug-07 19:47 041 11 gusting 16 23.3
2020-Aug-07 19:42 039 13 gusting 15 23.3
2020-Aug-07 19:37 051 12 gusting 17 23.3
2020-Aug-07 19:32 027 13 gusting 17 23.3
2020-Aug-07 19:27 054 13 gusting 14 23.3
2020-Aug-07 19:22 046 13 gusting 15 23.3
2020-Aug-07 19:17 042 12 gusting 15 23.3
2020-Aug-07 19:12 048 10 gusting 13 23.3
2020-Aug-07 19:07 057 9 gusting 13 23.3
2020-Aug-07 19:02 034 11 gusting 15 23.3
2020-Aug-07 18:57 056 13 gusting 15 23.3
2020-Aug-07 18:52 114 11 gusting 14 23.3
2020-Aug-07 18:47 029 13 gusting 16 23.3
2020-Aug-07 18:42 039 12 gusting 16 23.3
2020-Aug-07 18:37 044 12 gusting 14 23.3
2020-Aug-07 18:32 055 12 gusting 14 23.3
2020-Aug-07 18:30 026 10 gusting 14 22.8
2020-Aug-07 18:22 070 11 gusting 13 23.3
2020-Aug-07 18:17 037 11 gusting 13 23.3
2020-Aug-07 18:12 036 11 gusting 13 23.3
2020-Aug-07 18:07 037 10 gusting 13 23.3
2020-Aug-07 18:02 031 11 gusting 13 23.3
2020-Aug-07 17:57 051 9 gusting 12 23.9
2020-Aug-07 17:52 038 8 gusting 11 23.9
2020-Aug-07 17:47 063 8 gusting 13 23.9
2020-Aug-07 17:45 064 10 gusting 13 23.3
2020-Aug-07 17:37 034 6 gusting 9 24.4
2020-Aug-07 17:32 041 5 gusting 9 24.4
2020-Aug-07 17:27 063 6 gusting 9 24.4
2020-Aug-07 17:22 056 6 gusting 8 24.4
2020-Aug-07 17:17 068 6 gusting 10 24.4
2020-Aug-07 17:12 044 6 gusting 11 23.9
2020-Aug-07 17:07 054 7 gusting 10 23.9
2020-Aug-07 17:02 053 6 gusting 13 23.9
2020-Aug-07 16:57 029 6 gusting 13 23.9
2020-Aug-07 16:47 066 7 gusting 13 23.3
2020-Aug-07 16:42 059 10 gusting 13 23.3
2020-Aug-07 16:37 046 11 gusting 13 23.3
2020-Aug-07 16:32 052 9 gusting 13 23.3
2020-Aug-07 16:27 046 8 gusting 13 23.3
2020-Aug-07 16:22 065 8 gusting 13 23.3
2020-Aug-07 16:17 063 10 gusting 13 23.3
2020-Aug-07 16:12 063 9 gusting 15 23.3
2020-Aug-07 16:07 052 10 gusting 15 23.3
2020-Aug-07 16:02 046 8 gusting 12 23.3
2020-Aug-07 15:57 053 8 gusting 13 23.3
2020-Aug-07 15:52 057 9 gusting 13 22.8
2020-Aug-07 15:47 050 8 gusting 12 22.8
2020-Aug-07 15:42 065 6 gusting 9 22.8
2020-Aug-07 15:37 057 6 gusting 9 22.8
2020-Aug-07 15:32 059 7 gusting 10 22.8
2020-Aug-07 15:27 046 7 gusting 11 22.2
2020-Aug-07 15:22 081 8 gusting 12 22.2
2020-Aug-07 15:17 053 6 gusting 13 22.2
2020-Aug-07 15:12 061 9 gusting 13 22.2
2020-Aug-07 15:07 043 10 gusting 13 22.2
2020-Aug-07 15:02 063 10 gusting 12 22.2
2020-Aug-07 14:57 032 9 gusting 12 22.2
2020-Aug-07 14:52 052 8 gusting 12 22.2
2020-Aug-07 14:47 066 8 gusting 12 21.7
2020-Aug-07 14:42 046 8 gusting 12 21.7
2020-Aug-07 14:37 057 8 gusting 13 21.7
2020-Aug-07 14:32 058 8 gusting 12 21.7
2020-Aug-07 14:27 050 7 gusting 11 21.7
2020-Aug-07 14:22 067 7 gusting 12 21.7
2020-Aug-07 14:17 053 7 gusting 12 21.7
2020-Aug-07 14:12 048 7 gusting 10 21.7
2020-Aug-07 14:07 040 8 gusting 10 21.7
2020-Aug-07 14:02 043 6 gusting 8 21.7
2020-Aug-07 13:57 042 5 gusting 7 21.7
2020-Aug-07 13:52 056 5 gusting 8 21.7
2020-Aug-07 13:47 046 5 gusting 8 21.7
2020-Aug-07 13:42 056 4 gusting 7 21.7
2020-Aug-07 13:37 048 6 gusting 9 21.1
2020-Aug-07 13:32 047 6 gusting 9 21.1
2020-Aug-07 13:27 049 5 gusting 7 21.1
2020-Aug-07 13:22 058 5 gusting 6 21.1
2020-Aug-07 13:17 066 4 gusting 8 21.1
2020-Aug-07 13:12 058 5 gusting 8 21.7
2020-Aug-07 13:07 050 5 gusting 8 21.7
2020-Aug-07 13:02 077 5 gusting 9 21.1
2020-Aug-07 13:00 065 6 gusting 9 21.1
2020-Aug-07 12:52 046 5 gusting 7 21.7
2020-Aug-07 12:47 067 5 gusting 6 21.7
2020-Aug-07 12:42 056 4 gusting 6 21.7
2020-Aug-07 12:37 027 4 gusting 6 21.7
2020-Aug-07 12:32 044 5 gusting 6 21.1
2020-Aug-07 12:27 046 3 gusting 6 21.1
2020-Aug-07 12:22 044 4 gusting 7 21.1
2020-Aug-07 12:17 040 4 gusting 7 21.1
2020-Aug-07 12:15 057 5 gusting 7 20.6
2020-Aug-07 12:07 053 6 gusting 9 21.1
2020-Aug-07 12:02 039 5 gusting 9 21.1
2020-Aug-07 11:57 048 5 gusting 10 21.1
2020-Aug-07 11:52 044 5 gusting 11 21.1
2020-Aug-07 11:47 075 8 gusting 11 20.6
2020-Aug-07 11:42 041 7 gusting 11 20.6
2020-Aug-07 11:37 049 8 gusting 11 20.6
2020-Aug-07 11:32 052 7 gusting 10 20.6
2020-Aug-07 11:30 059 7 gusting 10 20.6
2020-Aug-07 11:22 060 6 gusting 10 20.6
2020-Aug-07 11:17 041 6 gusting 10 21.1
2020-Aug-07 11:12 048 7 gusting 8 21.1
2020-Aug-07 11:07 031 4 gusting 6 21.1
2020-Aug-07 11:02 037 3 gusting 6 21.1
2020-Aug-07 10:57 026 4 gusting 6 21.1
2020-Aug-07 10:52 034 3 gusting 5 21.7
2020-Aug-07 10:47 020 3 gusting 4 21.7
2020-Aug-07 10:45 036 1 gusting 4 21.7
2020-Aug-07 10:37 030 3 gusting 5 21.7
2020-Aug-07 10:32 034 3 gusting 4 21.7
2020-Aug-07 10:27 044 21.7
2020-Aug-07 10:22 041 21.7
2020-Aug-07 10:17 041 21.7
2020-Aug-07 10:12 053 21.7
2020-Aug-07 10:07 053 21.7
2020-Aug-07 10:02 056 21.7
2020-Aug-07 09:57 042 1 gusting 3 21.7
2020-Aug-07 09:52 041 1 gusting 3 21.7
2020-Aug-07 09:47 013 0 gusting 2 22.2
2020-Aug-07 09:42 330 0 gusting 5 22.2
2020-Aug-07 09:37 335 1 gusting 5 22.2
2020-Aug-07 09:32 333 3 gusting 5 22.2
2020-Aug-07 09:27 327 3 gusting 4 22.2
2020-Aug-07 09:22 340 0 gusting 3 22.2
2020-Aug-07 09:17 006 22.2
2020-Aug-07 09:12 319 0 gusting 1 22.2
2020-Aug-07 09:07 336 22.2
2020-Aug-07 09:02 039 22.2
2020-Aug-07 09:00 046 21.7
2020-Aug-07 08:52 053 1 gusting 3 22.2
2020-Aug-07 08:48 065 0 gusting 6 21.7
2020-Aug-07 08:42 033 3 gusting 6 22.2
2020-Aug-07 08:37 045 4 gusting 6 22.2
2020-Aug-07 08:32 039 1 gusting 3 22.2
2020-Aug-07 08:27 053 1 gusting 5 22.2
2020-Aug-07 08:22 056 3 gusting 5 22.2
2020-Aug-07 08:17 053 1 gusting 4 22.2
2020-Aug-07 08:15 052 1 gusting 4 21.7
2020-Aug-07 08:07 051 1 gusting 4 22.2
2020-Aug-07 08:02 041 2 gusting 4 22.2
2020-Aug-07 07:57 085 1 gusting 3 22.2
2020-Aug-07 07:52 069 1 gusting 3 22.2
2020-Aug-07 07:47 081 22.2
2020-Aug-07 07:42 131 22.2
2020-Aug-07 07:37 130 22.2
2020-Aug-07 07:32 154 22.2
2020-Aug-07 07:27 108 22.2
2020-Aug-07 07:22 106 22.2
2020-Aug-07 07:17 101 22.2
2020-Aug-07 07:15 101 22.2
2020-Aug-07 07:07 086 22.2
2020-Aug-07 07:02 087 22.2
2020-Aug-07 06:57 060 22.2
2020-Aug-07 06:52 061 22.2
2020-Aug-07 06:47 064 22.2
2020-Aug-07 06:42 101 22.2
2020-Aug-07 06:37 082 22.2
2020-Aug-07 06:32 056 0 gusting 3 22.2
2020-Aug-07 06:27 056 2 gusting 3 22.2
2020-Aug-07 06:22 077 2 gusting 3 22.2
2020-Aug-07 06:17 068 1 gusting 3 22.8
2020-Aug-07 06:12 064 1 gusting 2 22.8
2020-Aug-07 06:07 061 1 gusting 2 22.8
2020-Aug-07 06:02 082 22.8
2020-Aug-07 05:57 084 22.8
2020-Aug-07 05:52 039 2 gusting 4 22.8
2020-Aug-07 05:47 068 22.8
2020-Aug-07 05:42 063 22.8
2020-Aug-07 05:37 058 22.8
2020-Aug-07 05:32 072 22.8
2020-Aug-07 05:27 139 22.8
2020-Aug-07 05:22 140 22.8
2020-Aug-07 05:17 136 23.3
2020-Aug-07 05:12 124 23.3
2020-Aug-07 05:07 124 23.3
2020-Aug-07 05:02 132 22.8
2020-Aug-07 04:57 136 22.8
2020-Aug-07 04:52 136 22.8
2020-Aug-07 04:47 136 22.8
2020-Aug-07 04:42 136 22.8
2020-Aug-07 04:37 136 22.8
2020-Aug-07 04:32 136 22.8
2020-Aug-07 04:27 136 23.3
2020-Aug-07 04:22 136 23.3
2020-Aug-07 04:17 117 23.3
2020-Aug-07 04:12 115 23.3
2020-Aug-07 04:07 115 23.3
2020-Aug-07 04:02 115 23.3
2020-Aug-07 03:57 191 23.3
2020-Aug-07 03:52 191 23.3
2020-Aug-07 03:47 191 23.3
2020-Aug-07 03:42 191 23.3
2020-Aug-07 03:37 191 23.3
2020-Aug-07 03:32 194 23.3
2020-Aug-07 03:27 194 23.3
2020-Aug-07 03:22 194 23.3
2020-Aug-07 03:17 192 23.3
2020-Aug-07 03:15 192 23.3
2020-Aug-07 03:07 192 23.3
2020-Aug-07 03:02 192 23.3
2020-Aug-07 02:57 190 23.3
2020-Aug-07 02:52 161 23.9
2020-Aug-07 02:47 155 23.9
2020-Aug-07 02:42 068 23.9
2020-Aug-07 02:37 068 23.9
2020-Aug-07 02:32 068 23.9
2020-Aug-07 02:30 058 23.3
2020-Aug-07 02:22 058 23.9
2020-Aug-07 02:17 058 23.9
2020-Aug-07 02:12 058 23.9
2020-Aug-07 02:07 049 23.9
2020-Aug-07 02:02 077 23.9
2020-Aug-07 01:57 118 23.9
2020-Aug-07 01:52 119 23.9
2020-Aug-07 01:47 109 23.9
2020-Aug-07 01:42 122 23.9
2020-Aug-07 01:37 153 23.9
2020-Aug-07 01:32 115 24.4
2020-Aug-07 01:30 129 23.9
2020-Aug-07 01:22 200 23.9
2020-Aug-07 01:17 236 24.4
2020-Aug-07 01:12 245 24.4
2020-Aug-07 01:07 250 24.4
2020-Aug-07 01:02 251 24.4
2020-Aug-07 00:57 237 24.4
2020-Aug-07 00:52 237 24.4
2020-Aug-07 00:47 242 24.4
2020-Aug-07 00:45 242 23.9
2020-Aug-07 00:37 243 24.4
2020-Aug-07 00:32 195 23.9
2020-Aug-07 00:27 194 24.4
2020-Aug-07 00:22 221 24.4
2020-Aug-07 00:17 157 24.4
2020-Aug-07 00:12 181 24.4
2020-Aug-07 00:07 179 0 gusting 2 24.4
2020-Aug-07 00:03 206 0 gusting 2 25.0
2020-Aug-06 23:47 161 25.0
2020-Aug-06 23:42 248 0 gusting 3 25.0
2020-Aug-06 23:37 183 25.0
2020-Aug-06 23:32 171 25.0
2020-Aug-06 23:27 107 2 gusting 4 25.0
2020-Aug-06 23:22 167 0 gusting 6 25.6
2020-Aug-06 23:17 231 2 gusting 6 25.6
2020-Aug-06 23:15 196 0 gusting 3 25.0
2020-Aug-06 23:07 215 0 gusting 5 25.6
2020-Aug-06 23:02 228 1 gusting 6 25.6
2020-Aug-06 22:57 164 2 gusting 6 25.6
2020-Aug-06 22:52 210 2 gusting 6 25.6
2020-Aug-06 22:47 134 1 gusting 6 25.6
2020-Aug-06 22:42 237 1 gusting 7 25.6
2020-Aug-06 22:37 141 3 gusting 7 25.6
2020-Aug-06 22:32 181 3 gusting 6 26.1
2020-Aug-06 22:27 158 2 gusting 6 26.1
2020-Aug-06 22:22 256 2 gusting 6 26.1
2020-Aug-06 22:17 186 4 gusting 7 26.7
2020-Aug-06 22:12 139 4 gusting 7 26.7
2020-Aug-06 22:07 137 3 gusting 7 26.7
2020-Aug-06 22:02 268 3 gusting 9 26.7
2020-Aug-06 21:57 084 4 gusting 9 26.7
2020-Aug-06 21:52 196 4 gusting 8 26.7
2020-Aug-06 21:47 256 3 gusting 6 26.7
2020-Aug-06 21:42 191 2 gusting 7 26.7
2020-Aug-06 21:37 140 3 gusting 7 26.7
2020-Aug-06 21:32 103 3 gusting 7 26.7
2020-Aug-06 21:27 260 2 gusting 6 25.6
2020-Aug-06 21:22 186 2 gusting 6 25.0
2020-Aug-06 21:17 043 25.0
2020-Aug-06 21:12 047 2 gusting 5 25.0
2020-Aug-06 21:07 049 4 gusting 6 25.0
2020-Aug-06 21:02 039 5 gusting 6 25.0
2020-Aug-06 20:57 044 6 gusting 6 25.0
2020-Aug-06 20:52 035 6 gusting 6 25.0
2020-Aug-06 20:47 044 5 gusting 6 25.0
2020-Aug-06 20:42 044 6 gusting 6 25.0
2020-Aug-06 20:37 037 5 gusting 6 25.0
2020-Aug-06 20:32 045 5 gusting 7 25.0
2020-Aug-06 20:30 047 5 gusting 7 24.4
2020-Aug-06 20:22 043 6 gusting 7 25.0
2020-Aug-06 20:17 043 5 gusting 6 24.4
2020-Aug-06 20:12 039 6 gusting 6 25.0
2020-Aug-06 20:07 048 5 gusting 6 25.0
2020-Aug-06 20:02 037 5 gusting 7 25.0
2020-Aug-06 19:57 046 5 gusting 8 25.0
2020-Aug-06 19:52 042 6 gusting 8 25.0
2020-Aug-06 19:47 040 3 gusting 8 25.0
2020-Aug-06 19:42 041 6 gusting 11 24.4
2020-Aug-06 19:37 051 5 gusting 11 24.4
2020-Aug-06 19:32 038 6 gusting 8 24.4
2020-Aug-06 19:27 046 6 gusting 9 24.4
2020-Aug-06 19:22 044 6 gusting 9 24.4
2020-Aug-06 19:17 049 8 gusting 9 24.4
2020-Aug-06 19:12 040 8 gusting 9 24.4
2020-Aug-06 19:07 054 6 gusting 9 24.4
2020-Aug-06 19:02 051 6 gusting 9 24.4
2020-Aug-06 18:57 067 7 gusting 9 24.4
2020-Aug-06 18:52 040 7 gusting 9 24.4
2020-Aug-06 18:47 048 6 gusting 9 24.4
2020-Aug-06 18:45 056 6 gusting 9 23.9
2020-Aug-06 18:37 058 6 gusting 8 24.4
2020-Aug-06 18:32 023 7 gusting 11 24.4
2020-Aug-06 18:27 053 8 gusting 11 24.4
2020-Aug-06 18:22 044 9 gusting 10 23.9
2020-Aug-06 18:17 049 8 gusting 10 24.4
2020-Aug-06 18:12 023 8 gusting 10 23.9
2020-Aug-06 18:07 053 6 gusting 8 24.4
2020-Aug-06 18:02 041 7 gusting 9 23.9
2020-Aug-06 17:57 045 6 gusting 9 23.9
2020-Aug-06 17:52 053 8 gusting 9 23.9
2020-Aug-06 17:47 039 7 gusting 10 24.4
2020-Aug-06 17:42 056 7 gusting 11 23.9
2020-Aug-06 17:37 046 8 gusting 10 23.9
2020-Aug-06 17:32 040 8 gusting 11 23.9
2020-Aug-06 17:27 049 8 gusting 10 23.9
2020-Aug-06 17:22 040 7 gusting 10 23.9
2020-Aug-06 17:17 041 8 gusting 10 23.9
2020-Aug-06 17:12 043 8 gusting 10 23.9
2020-Aug-06 17:07 041 7 gusting 8 23.9
2020-Aug-06 17:02 046 7 gusting 8 23.9
2020-Aug-06 16:57 027 6 gusting 8 23.9
2020-Aug-06 16:52 046 7 gusting 8 23.9
2020-Aug-06 16:47 032 6 gusting 6 23.9
2020-Aug-06 16:42 035 5 gusting 6 23.9
2020-Aug-06 16:37 041 5 gusting 6 23.9
2020-Aug-06 16:32 038 4 gusting 6 23.9
2020-Aug-06 16:27 037 4 gusting 6 23.9
2020-Aug-06 16:22 039 4 gusting 5 23.3
2020-Aug-06 16:17 042 3 gusting 4 23.3
2020-Aug-06 16:12 049 2 gusting 4 23.3
2020-Aug-06 16:07 053 2 gusting 4 22.8
2020-Aug-06 16:02 040 2 gusting 6 22.8
2020-Aug-06 15:57 046 4 gusting 6 22.8
2020-Aug-06 15:52 051 5 gusting 6 22.8
2020-Aug-06 15:47 042 4 gusting 6 22.8
2020-Aug-06 15:42 038 5 gusting 6 22.8
2020-Aug-06 15:37 034 4 gusting 6 22.8
2020-Aug-06 15:32 035 5 gusting 6 22.8
2020-Aug-06 15:27 041 4 gusting 6 22.8
2020-Aug-06 15:22 041 3 gusting 5 22.2
2020-Aug-06 15:17 039 4 gusting 5 22.2
2020-Aug-06 15:12 041 4 gusting 6 22.2
2020-Aug-06 15:07 048 3 gusting 6 22.2
2020-Aug-06 15:02 049 4 gusting 6 22.2
2020-Aug-06 14:57 033 4 gusting 6 22.2
2020-Aug-06 14:52 060 3 gusting 5 22.2
2020-Aug-06 14:47 050 2 gusting 6 22.2
2020-Aug-06 14:42 054 3 gusting 7 22.2
2020-Aug-06 14:37 079 5 gusting 8 22.2
2020-Aug-06 14:32 044 5 gusting 9 22.2
2020-Aug-06 14:30 059 6 gusting 9 21.7
2020-Aug-06 14:22 046 8 gusting 11 22.2
2020-Aug-06 14:17 034 8 gusting 11 22.2
2020-Aug-06 14:12 047 6 gusting 9 22.2
2020-Aug-06 14:07 049 8 gusting 11 22.2
2020-Aug-06 14:02 037 8 gusting 12 22.2
2020-Aug-06 13:57 052 9 gusting 13 22.2
2020-Aug-06 13:52 039 9 gusting 13 22.2
2020-Aug-06 13:47 060 8 gusting 10 22.2
2020-Aug-06 13:42 041 6 gusting 11 22.2
2020-Aug-06 13:37 048 9 gusting 11 21.7
2020-Aug-06 13:32 060 8 gusting 11 21.7
2020-Aug-06 13:30 045 9 gusting 11 21.7
2020-Aug-06 13:22 060 6 gusting 11 21.7
2020-Aug-06 13:18 045 8 gusting 12 21.7
2020-Aug-06 13:12 037 9 gusting 12 21.7
2020-Aug-06 13:07 032 8 gusting 12 21.7
2020-Aug-06 13:02 041 9 gusting 12 21.7
2020-Aug-06 12:57 067 10 gusting 12 21.7
2020-Aug-06 12:52 049 11 gusting 12 21.7
2020-Aug-06 12:47 054 10 gusting 12 21.7
2020-Aug-06 12:45 056 8 gusting 10 21.7
2020-Aug-06 12:37 039 6 gusting 9 21.7
2020-Aug-06 12:32 050 6 gusting 9 21.7
2020-Aug-06 12:27 046 6 gusting 8 21.7
2020-Aug-06 12:22 065 6 gusting 11 21.7
2020-Aug-06 12:17 047 7 gusting 11 21.7
2020-Aug-06 12:12 034 8 gusting 11 21.7
2020-Aug-06 12:07 046 6 gusting 10 21.7
2020-Aug-06 12:02 056 6 gusting 10 21.7